Regional Weather Roundup
Issued by NWS

Home | Current Version | Previous Version | Graphics & Text | Print | Product List | Glossary On
Versions: 1 2 3 4 5 6 7 8 9 10 11 12 13 14 15 16 17 18 19 20 21 22 23 24 25 26 27 28 29 30 31 32 33 34 35 36 37 38 39 40 41 42 43 44 45 46 47 48 49 50
000
ASUS43 KLMK 212202
RWRKY
KENTUCKY REGIONAL WEATHER ROUNDUP
NATIONAL WEATHER SERVICE LOUISVILLE KY
600 PM EDT MON JUL 21 2014

NOTE "FAIR" INDICATES FEW OR NO CLOUDS BELOW 12,000 FEET
WITH NO SIGNIFICANT WEATHER AND/OR OBSTRUCTIONS TO VISIBILITY.

KYZ001>023-026-027-061>063-070>075-212300-
WESTERN AND SOUTH CENTRAL KENTUCKY

CITY           SKY/WX    TMP DP  RH WIND       PRES   REMARKS
PADUCAH        SUNNY     89  66  46 N7        30.04F HX  91
HENDERSON      SUNNY     84  64  51 CALM      30.04F
OWENSBORO      MOSUNNY   87  64  46 NE9       30.06S
HOPKINSVILLE   PTSUNNY   90  64  41 NE8       30.04R HX  91
BOWLING GREEN  SUNNY     90  61  37 E6        30.05S HX  90
GLASGOW        SUNNY     89  62  40 CALM      30.05S
$$

KYZ024-025-028>034-038-045-046-053-212300-
NORTH CENTRAL KENTUCKY

CITY           SKY/WX    TMP DP  RH WIND       PRES   REMARKS
LOUISVILLE/SDF MOSUNNY   89  64  43 VRB3      30.05S HX  90
LOUISVILLE/LOU MOSUNNY   88  63  43 CALM      30.06S
FORT KNOX      NOT AVBL
$$

KYZ035>037-039>044-047>052-055>060-089>105-212300-
NORTHEAST KENTUCKY

CITY           SKY/WX    TMP DP  RH WIND       PRES   REMARKS
LEXINGTON      SUNNY     89  67  47 NE5       30.08F HX  92
COVINGTON      MOSUNNY   87  61  41 VRB7      30.08S
FRANKFORT      MOSUNNY   88  64  44 E7        30.06F
$$

KYZ054-064>069-076>088-106>120-212300-
SOUTHEAST KENTUCKY

CITY           SKY/WX    TMP DP  RH WIND       PRES   REMARKS
JACKSON        SUNNY     85  68  56 VRB3      30.09F
LONDON         SUNNY     86  68  54 E7        30.08S
SOMERSET       MOSUNNY   86  64  48 CALM      30.08S
MIDDLESBORO    PTSUNNY   88  69  52 CALM      30.07F HX  92
MONTICELLO     PTCLDY    86  72  62 CALM      30.08S HX  92
$$




USA.gov is the U.S. government's official web portal to all federal, state and local government web resources and services.